This is the latest recevied weather packets stored in our database for station/object K9NZF-2. If no packets are shown the sender has not sent any weather packets the latest 1 day(s).
| Time | Temp. | Humidity | Pressure | Rain* | Wind** | Luminosity | Snow |
|---|---|---|---|---|---|---|---|
| 1778043938 | 6.11° C | 93% | 971.3 hPa | 1.52 mm | 0.89 m/s, 340° | - | - |
| 1778043877 | 6.11° C | 93% | 971.2 hPa | 1.52 mm | 0.89 m/s, 22° | - | - |
| 1778043817 | 6.11° C | 93% | 971.2 hPa | 1.78 mm | 0.89 m/s, 330° | - | - |
| 1778043757 | 6.11° C | 93% | 971.2 hPa | 1.78 mm | 0.89 m/s, 349° | - | - |
| 1778043696 | 6.11° C | 93% | 971.2 hPa | 1.78 mm | 0.89 m/s, 330° | - | - |
| 1778043637 | 6.11° C | 93% | 971.2 hPa | 2.03 mm | 0.89 m/s, 346° | - | - |
| 1778043577 | 6.11° C | 93% | 971.2 hPa | 2.03 mm | 0.89 m/s, 347° | - | - |
| 1778043517 | 6.11° C | 93% | 971.1 hPa | 2.29 mm | 0.89 m/s, 331° | - | - |
| 1778043458 | 6.11° C | 93% | 971.1 hPa | 2.54 mm | 0.89 m/s, 352° | - | - |
| 1778043394 | 6.11° C | 93% | 971.1 hPa | 2.54 mm | 0.89 m/s, 352° | - | - |
| 1778043337 | 6.11° C | 93% | 971.1 hPa | 2.79 mm | 0.89 m/s, 338° | - | - |
| 1778043278 | 6.11° C | 93% | 971 hPa | 2.79 mm | 0.89 m/s, 318° | - | - |
| 1778043216 | 6.11° C | 93% | 970.9 hPa | 3.05 mm | 0.89 m/s, 339° | - | - |
| 1778043156 | 6.11° C | 93% | 971 hPa | 3.05 mm | 0.89 m/s, 19° | - | - |
| 1778043095 | 6.11° C | 93% | 971 hPa | 3.05 mm | 0.89 m/s, 6° | - | - |
| 1778043033 | 6.11° C | 93% | 971 hPa | 3.05 mm | 0.45 m/s, 349° | - | - |
| 1778042971 | 6.11° C | 93% | 971 hPa | 3.05 mm | 0.45 m/s, 347° | - | - |
| 1778042911 | 6.11° C | 93% | 971.1 hPa | 3.05 mm | 0.45 m/s, 23° | - | - |
| 1778042851 | 6.11° C | 93% | 971.1 hPa | 3.05 mm | 0.45 m/s, 20° | - | - |
| 1778042794 | 6.11° C | 93% | 971.1 hPa | 3.05 mm | 0.45 m/s, 348° | - | - |
| 1778042730 | 6.11° C | 93% | 971.1 hPa | 3.05 mm | 0.45 m/s, 6° | - | - |
| 1778042670 | 6.11° C | 93% | 971 hPa | 3.05 mm | 0.89 m/s, 357° | - | - |
| 1778042610 | 6.11° C | 93% | 971.1 hPa | 3.05 mm | 0.89 m/s, 11° | - | - |
| 1778042552 | 6.11° C | 93% | 971.1 hPa | 3.05 mm | 0.89 m/s, 348° | - | - |
| 1778042492 | 6.11° C | 93% | 971 hPa | 3.05 mm | 0.89 m/s, 23° | - | - |
* Rain latest hour (hover to see other rain measurements)
** Current wind speed in m/s (hover to see current wind gust speed)